Date,TemperatureHighF,TemperatureAvgF,TemperatureLowF,DewpointHighF,DewpointAvgF,DewpointLowF,HumidityHigh,HumidityAvg,HumidityLow,PressureMaxIn,PressureMinIn,WindSpeedMaxMPH,WindSpeedAvgMPH,GustSpeedMaxMPH,PrecipitationSumIn
2013-2-1,20.3,11.9,5.5,20.3,11.9,5.5,100,100,100,29.53,29.18,13,4,13,0.00
2013-2-2,33.6,23.7,12.0,33.6,23.7,12.0,100,100,100,29.44,29.12,10,3,10,0.00
2013-2-3,27.0,21.6,16.3,27.0,21.6,16.3,100,100,100,29.26,29.06,11,3,11,0.00
2013-2-4,34.5,27.5,16.9,34.5,27.5,16.9,100,100,100,29.23,28.97,13,2,13,0.00
2013-2-5,37.4,33.4,27.0,37.4,33.4,27.0,100,100,100,29.15,28.97,10,1,10,0.08
2013-2-6,37.6,33.4,27.0,37.6,33.4,27.0,100,100,100,29.38,29.15,10,1,10,0.00
2013-2-7,64.4,44.8,30.2,60.5,44.2,30.2,100,98,87,29.32,28.97,15,2,15,0.00
2013-2-8,52.7,36.9,30.6,52.7,36.9,30.6,100,100,100,29.44,28.94,13,5,13,0.08
2013-2-9,45.9,32.4,19.2,45.9,32.4,19.2,100,100,97,29.56,29.35,6,2,6,0.00
2013-2-10,55.8,43.0,30.7,54.9,42.8,30.6,100,100,97,29.35,28.94,17,4,17,0.00
2013-2-11,52.5,47.0,37.8,52.5,47.0,37.8,100,100,100,29.18,28.94,21,8,21,0.00
2013-2-12,52.9,39.2,27.3,52.9,39.2,27.3,100,100,100,29.26,29.06,10,2,10,0.00
2013-2-13,39.7,32.5,28.8,39.7,32.5,28.8,100,100,100,29.06,28.94,9,1,9,0.04
2013-2-14,48.6,42.8,36.9,48.6,42.8,36.7,100,100,100,29.15,29.03,9,3,9,0.00
2013-2-15,42.8,33.1,23.5,42.8,33.1,23.5,100,100,100,29.29,29.12,11,2,11,0.00
2013-2-16,31.3,23.0,17.6,31.3,23.0,17.4,100,100,100,29.29,29.18,14,2,14,0.00
2013-2-17,37.4,22.5,10.9,37.4,22.5,10.8,100,100,100,29.35,29.23,9,1,9,0.00
2013-2-18,62.4,41.7,23.0,60.1,41.2,23.0,100,98,92,29.32,28.91,24,6,24,0.04
2013-2-19,45.0,32.3,23.4,45.0,32.3,23.4,100,100,100,29.23,28.82,17,2,17,0.20
2013-2-20,31.1,23.2,18.5,31.1,23.2,18.5,100,100,100,29.41,29.23,11,2,11,0.20
2013-2-21,36.1,26.1,19.0,36.1,26.1,19.0,100,100,100,29.47,29.18,14,3,14,0.20
2013-2-22,45.1,35.4,28.8,44.4,35.4,28.8,100,100,100,29.21,29.03,15,2,15,0.12
2013-2-23,47.5,36.5,30.4,47.5,36.5,30.4,100,100,100,29.15,29.03,8,2,8,0.04
2013-2-24,46.8,35.7,25.2,41.5,15.3,-4.1,100,55,20,29.29,29.09,8,2,8,0.00
2013-2-25,48.7,32.1,25.7,11.0,-1.0,-4.4,26,24,21,29.29,29.03,10,2,10,0.00
2013-2-26,48.7,39.9,34.2,33.8,16.0,0.7,56,39,22,29.03,28.64,9,3,10,0.79
2013-2-27,41.4,37.2,32.7,21.5,13.9,7.2,49,38,30,28.88,28.67,14,8,14,0.04
2013-2-28,35.8,33.7,32.0,15.7,10.9,6.0,45,38,32,29.09,28.85,0,0,0,0.04